Weather in Ilmino

Russia / Penza Oblast     53°47′14″N   45°39′26″E
temp.,
°C
wind,
m/s
gust,
m/s
humid.,
%
clouds,
%
prec.,
mm/h
press.,
hPa
HPBL,
m
6 august, fri
fri600:00+15ese226493 0.0 101712
03:00+14ese2267100 0.0 101810
06:00+16se22676 0.0 101847
09:00+22sse2349100 0.0 1017512
12:00+25sw224496 0.0 10171545
15:00+25ssw124229 0.0 10161339
18:00+24sse115711 0.0 101617
21:00+18se336321 0.0 101628
7 august, sat
sat700:00+17se36615 0.0 101689
03:00+15se35605 0.0 101672
06:00+16se376151 0.0 1017162
09:00+23sse46445 0.0 1016493
12:00+27s443783 0.0 10161184
15:00+28se343785 0.0 10161521
18:00+25ese35555 0.0 1016117
21:00+20se33542 0.0 101726
8 august, sun
sun800:00+18ese335686 0.0 101726
03:00+17ese3457100 0.0 101855
06:00+18se3759100 0.0 1018135
09:00+24sse5843100 0.0 1018424
12:00+29sse563365 0.0 10181176
15:00+30sse5530100 0.0 10181991
18:00+26sse2252100 0.0 101829
21:00+22se3352100 0.0 101929
9 august, mon
mon900:00+21sse2247100 0.0 102022
03:00+20se2252100 0.0 102022
06:00+20sse2258100 0.0 102041
09:00+25s244881 0.0 1020263
12:00+30ssw333458 0.0 10201366
15:00+31s2233100 0.0 10202252
18:00+28se1148100 0.0 101911
21:00+23se2255100 0.0 102011
10 august, tue
tue1000:00+21sse0055100 0.0 101911
03:00+21ese2252100 0.0 101912
06:00+22ese115498 0.0 101918
09:00+26e234610 0.0 1019296
12:00+31se233023 0.0 10171788
15:00+31se33298 0.0 10162358
18:00+28ene354685 0.0 1016115
21:00+22ene365334 0.0 101683